Temp_Advection
nan nan nan nan nan nan nan nan nan nan nan nan nan nan nan nan nan nan nan nan nan nan nan nan nan nan nan nan nan nan nan nan nan
nan 0 -0 -0 0 0 0 0 0 0 -0 0 0 0 -0 -0 -0 -0 -0 -0 -0 0 0 0 0 0 0 0 -0 -0 0 -0 nan
nan 0 -0 0 0 0 -0 -0 0 -0 -0 0 0 0 -0 -0 -0 -0 -0 -0 -0 -0 0 0 0 0 0 0 -0 -0 0 0 nan
nan 0 0 0 0 0 -0 0 0 -0 0 0 0 0 -0 -0 0 0 0 0 0 -0 0 0 0 0 0 0 -0 0 0 0 nan
nan 0 -0 -0 0 -0 -0 0 0 0 0 0 0 0 0 -0 0 0 0 0 0 -0 -0 0 0 0 -0 0 0 0 -0 0 nan
nan -0 -0 0 0 0 0 0 0 0 0 0 0 0 0 -0 0 0 0 0 -0 0 -0 0 0 0 -0 -0 0 0 0 0 nan
nan 0 -0 -0 0 0 0 0 0 0 0 0 0 0 0 0 0 0 0 -0 0 0 -0 0 0 0 0 -0 0 0 0 0 nan
nan -0 0 -0 -0 0 0 0 0 0 0 0 -0 0 -0 0 0 0 0 0 0 0 0 0 0 0 0 0 0 0 0 0 nan
nan 0 -0 0 0 0 -0 -0 0 0 -0 0 0 0 0 0 0 0 0 0 -0 1 0 0 0 0 0 0 0 -0 0 0 nan
nan 0 0 0 0 0 -1 0 -0 0 0 0 0 -0 0 0 0 0 0 0 -0 1 0 0 0 0 0 0 0 0 0 0 nan
nan -0 0 0 0 0 -0 -1 1 1 1 0 -0 -0 0 0 0 0 0 0 0 0 0 0 0 0 0 0 0 0 0 0 nan
nan -1 0 0 0 -0 0 0 -0 1 1 0 -0 0 0 0 0 0 0 0 0 0 0 0 0 -0 0 0 0 0 0 0 nan
nan -1 -0 -0 0 0 0 0 0 1 1 0 -0 0 0 0 0 0 0 0 0 0 -0 -0 -0 -0 0 0 0 0 0 0 nan
nan -2 -1 -0 -0 0 0 -0 0 1 0 -0 0 0 0 0 0 0 0 0 0 -0 -0 -0 -0 -0 0 0 0 0 0 0 nan
nan -1 -2 -1 -1 -0 -0 -0 0 0 -0 0 1 1 0 0 0 0 0 0 -0 -0 -0 -0 0 0 0 0 0 0 0 0 nan
nan -1 -1 -2 -1 -1 0 1 0 -0 0 0 0 1 0 0 0 0 0 0 0 -0 -0 0 0 0 0 0 0 0 0 0 nan
nan -1 -1 -1 -1 -1 0 1 0 -0 0 0 -0 0 0 0 0 1 0 0 0 0 0 0 0 1 0 0 1 0 0 0 nan
nan -1 -2 -1 -1 -2 -1 -1 -0 -0 0 1 0 -1 -0 0 0 1 1 0 0 0 1 0 1 0 0 0 0 0 0 0 nan
nan -2 -1 -1 -1 -2 -1 -1 -1 -1 0 1 -0 -1 0 -0 0 1 0 0 0 0 0 1 0 0 -0 0 0 0 0 0 nan
nan nan nan nan nan nan nan nan nan nan nan nan nan nan nan nan nan nan nan nan nan nan nan nan nan nan nan nan nan nan nan nan nan
Wind_Speed
7 8 8 9 10 10 8 10 7 6 5 4 4 5 6 5 4 6 5 4 8 7 9 11 9 8 8 8 11 13 15 15 16
8 8 8 9 12 12 11 10 10 10 8 7 6 5 8 6 2 6 4 3 4 10 7 10 9 6 6 8 9 12 14 15 17
9 8 7 8 11 14 13 10 11 11 7 7 7 6 7 4 2 3 2 3 4 6 7 11 8 6 7 9 9 11 13 14 16
13 11 9 9 12 15 15 15 15 14 10 9 9 7 7 6 5 1 3 1 4 2 11 12 8 7 9 11 11 10 11 13 15
16 13 15 11 12 15 16 17 17 16 13 11 10 8 6 3 6 7 7 7 8 7 14 9 8 6 8 10 10 8 9 10 12
19 20 15 14 13 14 17 18 19 17 13 12 10 7 3 5 4 10 9 6 5 15 13 11 8 6 8 8 9 8 8 6 8
21 20 19 15 16 16 16 18 20 19 18 17 14 11 6 7 7 11 9 7 2 15 11 7 8 5 9 8 7 6 7 5 6
17 22 20 19 17 19 17 20 23 22 19 22 19 12 8 8 7 14 12 10 6 14 11 10 6 7 10 8 7 6 4 4 3
18 20 24 25 19 22 22 22 25 25 24 21 21 13 12 10 8 14 13 10 8 17 13 10 8 7 11 9 7 4 2 1 2
23 22 25 28 26 23 26 26 29 28 26 23 20 17 14 12 10 16 13 11 8 18 13 11 10 8 12 10 8 6 2 2 3
28 26 28 30 30 29 27 32 34 32 31 29 23 19 17 14 18 15 14 13 13 16 18 14 11 9 14 12 9 6 5 2 1
29 32 30 30 32 34 30 35 37 34 37 32 26 23 20 18 16 13 14 16 16 14 18 16 13 9 14 13 12 10 8 3 2
30 34 36 30 34 38 35 36 34 31 36 35 29 26 24 20 18 17 13 13 19 16 12 20 14 9 14 16 13 11 7 4 3
31 34 38 35 36 39 41 40 39 38 37 38 32 30 26 23 21 20 18 15 16 12 18 18 16 12 10 21 14 12 8 6 4
30 35 37 39 39 40 34 32 44 40 45 38 31 31 28 26 25 22 21 18 20 17 19 18 19 17 10 21 20 15 11 4 4
33 35 38 40 43 44 42 35 37 45 47 40 32 27 26 27 26 25 22 21 21 24 21 23 20 18 12 12 21 17 13 9 10
30 33 37 40 44 48 45 35 29 49 50 44 32 22 25 25 26 26 25 26 23 27 27 26 23 18 17 17 20 18 15 14 12
30 33 37 44 46 53 50 47 33 46 55 48 40 19 13 29 27 28 27 26 24 27 30 27 24 19 16 19 18 20 18 17 16
32 35 40 44 47 54 53 51 37 33 54 59 53 47 30 27 20 32 29 25 28 27 28 29 25 26 22 22 20 18 20 19 19
34 36 41 46 49 53 54 57 50 36 55 59 61 47 39 31 25 25 34 31 28 30 25 24 26 31 26 19 24 22 19 18 20
Wind_Direction
203 252 249 254 257 243 214 216 212 211 234 188 171 154 144 93 81 52 59 92 79 106 112 119 102 113 89 97 82 82 81 79 72
229 215 247 243 248 242 226 215 228 232 248 213 187 164 133 130 67 55 25 34 71 91 104 129 116 116 97 99 97 90 87 84 79
232 236 231 236 237 236 232 230 238 224 234 218 202 185 158 94 121 143 129 45 6 103 104 126 107 93 112 103 106 101 93 90 85
239 228 237 240 232 234 233 239 241 231 227 229 202 198 153 166 220 202 312 319 293 114 125 122 114 98 113 110 107 108 102 97 94
239 226 229 225 238 234 235 242 237 229 230 221 203 209 200 196 246 212 234 300 336 156 137 119 121 125 120 120 118 114 119 109 101
231 235 224 227 220 236 233 239 230 227 223 208 204 226 193 209 234 256 252 282 341 138 146 135 144 137 144 137 123 121 122 116 106
238 231 236 232 228 225 232 234 222 225 216 205 198 222 213 221 214 251 251 257 176 148 151 161 159 158 160 147 133 137 118 109 99
248 236 227 233 234 233 230 224 222 222 218 207 204 189 202 223 217 246 249 234 216 164 141 165 183 175 170 156 161 160 126 102 88
247 246 232 216 219 237 231 227 226 224 213 212 211 203 202 206 219 243 255 226 233 182 159 165 192 204 180 170 167 183 165 126 117
245 237 239 225 214 221 230 235 233 228 217 209 207 206 210 197 207 243 257 211 182 183 186 192 198 206 188 181 187 210 220 133 97
252 240 230 228 230 222 230 235 241 232 223 206 204 209 209 199 201 232 230 205 194 193 188 197 200 206 196 182 182 196 201 162 106
257 249 239 229 218 223 232 239 240 233 220 206 205 204 206 193 205 217 221 207 196 206 204 198 198 199 201 189 182 198 225 257 265
264 253 245 234 221 217 224 234 231 218 229 209 205 204 204 194 201 198 211 221 215 215 218 195 202 218 201 193 191 209 219 239 290
269 261 253 239 231 216 220 232 233 223 219 208 200 202 203 197 193 198 201 225 201 208 185 186 196 208 208 193 191 200 212 232 295
268 264 260 249 236 229 211 219 228 224 210 198 203 199 198 199 200 202 202 203 207 198 203 197 196 201 217 186 192 198 198 212 159
271 264 262 257 245 237 223 212 219 222 219 197 197 198 194 201 205 201 204 205 217 198 198 192 188 190 203 195 190 206 216 196 150
267 268 263 259 254 245 234 215 219 217 207 203 189 188 189 197 199 200 203 208 222 202 196 205 200 210 212 205 190 195 200 194 166
267 261 258 258 255 250 241 228 217 206 208 203 182 178 194 190 198 199 197 199 216 203 204 204 201 200 215 212 205 205 200 203 178
276 265 260 257 258 254 248 237 223 217 203 210 216 216 210 191 195 201 192 196 205 200 203 205 209 203 203 212 207 204 199 204 190
281 271 262 259 258 256 254 244 234 214 208 196 196 202 198 217 197 193 188 189 210 198 207 206 206 207 211 211 206 203 200 203 207
Height
1521 1525 1526 1528 1530 1530 1530 1531 1532 1534 1535 1537 1537 1538 1539 1540 1539 1540 1539 1538 1537 1537 1537 1538 1538 1538 1538 1538 1537 1536 1535 1535 1533
1521 1522 1524 1526 1528 1531 1531 1533 1533 1534 1535 1538 1539 1540 1541 1541 1542 1542 1541 1539 1539 1540 1540 1540 1540 1540 1540 1540 1540 1540 1538 1538 1537
1520 1522 1522 1524 1527 1529 1532 1533 1534 1534 1536 1538 1541 1541 1543 1544 1544 1545 1542 1541 1541 1542 1542 1542 1543 1542 1542 1542 1542 1543 1542 1541 1540
1519 1520 1522 1523 1525 1528 1531 1533 1534 1535 1536 1538 1540 1543 1543 1544 1544 1544 1543 1543 1542 1543 1543 1544 1544 1545 1544 1544 1544 1545 1545 1544 1543
1517 1519 1520 1520 1524 1526 1530 1533 1535 1536 1536 1537 1540 1543 1544 1546 1545 1544 1544 1544 1543 1544 1545 1546 1546 1547 1547 1547 1546 1547 1547 1547 1546
1514 1516 1517 1520 1521 1525 1528 1531 1535 1537 1537 1538 1540 1542 1545 1547 1545 1544 1544 1544 1545 1544 1546 1547 1548 1548 1549 1549 1549 1549 1549 1549 1549
1509 1511 1516 1519 1521 1523 1526 1530 1533 1536 1536 1537 1539 1541 1545 1546 1546 1543 1543 1543 1545 1546 1547 1548 1549 1550 1551 1551 1551 1551 1551 1551 1552
1505 1508 1511 1517 1520 1522 1524 1528 1531 1533 1536 1536 1538 1540 1543 1545 1545 1541 1542 1542 1545 1546 1547 1549 1550 1551 1552 1553 1553 1553 1553 1553 1553
1501 1505 1508 1510 1514 1518 1521 1525 1528 1531 1534 1534 1537 1540 1540 1543 1544 1542 1541 1541 1543 1545 1548 1548 1550 1552 1552 1553 1554 1555 1555 1554 1555
1496 1499 1503 1507 1509 1513 1516 1520 1522 1528 1531 1532 1535 1538 1540 1538 1542 1540 1540 1539 1541 1544 1548 1549 1550 1551 1553 1553 1554 1555 1556 1556 1556
1490 1493 1497 1502 1505 1509 1511 1514 1515 1522 1527 1527 1531 1535 1537 1537 1537 1538 1539 1539 1540 1543 1545 1548 1550 1550 1552 1553 1554 1555 1557 1557 1557
1483 1486 1489 1495 1498 1504 1507 1509 1509 1509 1522 1522 1526 1530 1533 1533 1533 1535 1537 1538 1538 1541 1543 1546 1549 1550 1550 1553 1554 1554 1556 1557 1557
1477 1477 1481 1486 1490 1495 1499 1502 1502 1505 1518 1515 1522 1525 1528 1530 1531 1534 1536 1536 1537 1537 1540 1543 1547 1548 1549 1552 1554 1554 1555 1557 1557
1471 1472 1474 1479 1482 1484 1492 1495 1497 1502 1502 1514 1519 1520 1523 1527 1527 1531 1534 1534 1535 1535 1538 1541 1544 1547 1548 1550 1554 1553 1554 1556 1557
1466 1466 1467 1471 1473 1475 1481 1485 1489 1496 1500 1505 1511 1514 1518 1523 1524 1525 1529 1533 1534 1536 1536 1538 1540 1545 1547 1548 1552 1554 1554 1555 1556
1459 1460 1462 1464 1464 1466 1470 1476 1480 1486 1492 1497 1507 1511 1515 1518 1520 1522 1524 1528 1529 1532 1534 1535 1538 1542 1546 1547 1549 1553 1554 1554 1556
1453 1454 1455 1455 1456 1457 1460 1465 1469 1475 1483 1485 1501 1506 1510 1514 1516 1518 1519 1523 1525 1528 1532 1534 1536 1540 1542 1546 1546 1550 1553 1553 1555
1445 1446 1446 1448 1448 1447 1450 1454 1459 1463 1471 1478 1478 1498 1502 1507 1512 1513 1515 1519 1521 1525 1528 1532 1534 1538 1539 1543 1545 1546 1550 1553 1554
1437 1438 1439 1439 1438 1437 1439 1441 1445 1451 1457 1469 1475 1480 1494 1498 1506 1508 1510 1515 1518 1521 1523 1527 1531 1534 1535 1538 1542 1543 1547 1551 1552
1427 1428 1428 1427 1427 1428 1428 1431 1430 1443 1449 1451 1459 1471 1481 1490 1495 1499 1500 1508 1513 1517 1520 1521 1526 1530 1531 1534 1538 1541 1544 1547 1550